[[{"header":{"parameterUnit":"m.s-1","parameterCategory":1,"la1":30.2991,"la2":30.254,"lo1":-89.0895,"lo2":-89.0444,"dy":0.0017,"dx":0.0017,"nx":28,"ny":28,"refTime":"2025-09-14T09:00:00:Z","depth":0,"parameterNumber":2,"parameterNumberName":"U-component_of_WINDS"},"data":[0,0,0,0,0,0,0,0,0,0,0,0,0,0,0,0,0,0,0,0,0,0,0,0,0,0,0,0,0,0,0,0,0,0,0,0,0,0,0,0,0,0,0,0,0,0,0,0,0,0,0,0,0,0,0,0,0,0,0.9433,0.9434,0,0.9501,0.9502,0.9502,0.9511,0.9511,0.951,0.9509,0.9578,0.9581,0.9583,0,0,0,0,0,0,0,0,0,0,0,0,0,0.9309,0.9311,0.9433,0.9434,0.9435,0.9501,0.9502,0.9503,0.9511,0.9511,0.951,0.9509,0.9578,0.9581,0.9583,0,0,0,0,0,0,0,0,0,0,0,0,0,0.9368,0.9312,0.9433,0.9447,0.9449,0.9501,0.9502,0.9503,0.9512,0.9511,0.951,0.9509,0.9577,0.958,0.9584,0.9626,0,0,0.9595,0.9597,0,0,0,0,0,0,0,0,0.9365,0.9373,0.9444,0.9446,0.9448,0.9497,0.9483,0.9544,0.9512,0.9488,0.9509,0.9508,0.9552,0.9558,0.9573,0.9629,0.9632,0.9595,0.9598,0.9599,0.96,0,0,0,0,0,0,0,0.9361,0.937,0.946,0.9445,0.9448,0.9449,0.9457,0.9495,0.9524,0.949,0.9491,0.9499,0.9553,0.9569,0.9574,0.9633,0.9595,0.9599,0.9601,0.9602,0.9725,0.9726,0,0,0,0,0,0,0.9354,0.9366,0.9458,0.9462,0.9403,0.9452,0.9461,0.9482,0.9524,0.953,0.9499,0.9499,0.9563,0.957,0.9577,0.9627,0.9599,0.9603,0.9605,0.9724,0.9725,0.9727,0,0,0,0,0,0,0.9351,0.9362,0.9455,0.9414,0.9426,0.9455,0.948,0.9484,0.95,0.9531,0.9536,0.951,0.9563,0.9571,0.9613,0.9629,0.9604,0.9608,0.9723,0.9724,0.9726,0.9729,0,0,0,0,0,0,0.9348,0.9361,0.9378,0.9415,0.9428,0.9491,0.9481,0.9486,0.9506,0.9506,0.9543,0.9548,0.9563,0.9608,0.9617,0.9634,0.961,0.9721,0.9724,0.9725,0.9727,0.973,0.9733,0,0,0,0,0,0.9343,0.9376,0.9379,0.939,0.945,0.9492,0.9499,0.9516,0.9508,0.9524,0.9544,0.9547,0.9626,0.9612,0.9622,0.9641,0.972,0.9723,0.9725,0.9726,0.973,0.9733,0,0,0,0,0,0,0.9341,0.9382,0.9385,0.9431,0.9458,0.9493,0.9515,0.9519,0.9549,0.9548,0.9566,0.9574,0.9615,0.9632,0.9615,0.9682,0.9673,0.9677,0.967,0.9673,0.9676,0.967,0.9613,0,0,0,0,0,0.9346,0.9377,0.941,0.9448,0.9461,0.9485,0.9504,0.9514,0.9543,0.9554,0.9577,0.9605,0.9635,0.9655,0.9686,0.973,0.9737,0.9748,0.975,0.9753,0.9756,0.9779,0.9783,0.9734,0.9734,0.9734,0,0,0.9356,0.9382,0.9401,0.9448,0.947,0.95,0.9495,0.9528,0.9551,0.9559,0.9599,0.9617,0.9649,0.9691,0.9711,0.9707,0.9771,0.9756,0.9757,0.9759,0.9782,0.9786,0.979,0.9736,0.9736,0.9735,0,0,0.9391,0.9414,0.9447,0.9469,0.9502,0.9518,0.9525,0.956,0.9572,0.9613,0.9619,0.9646,0.9699,0.9721,0.9739,0.9779,0.9783,0.9789,0.9803,0.9825,0.9828,0.9832,0.9845,0.9849,0.9792,0.9792,0.9792,0,0.9399,0.9446,0.9463,0.9495,0.9515,0.9524,0.9556,0.9577,0.9618,0.9631,0.9626,0.9692,0.9714,0.9761,0.977,0.9785,0.9793,0.9784,0.9827,0.983,0.9834,0.9846,0.9851,0.9793,0.9793,0.9793,0.9793,0,0.9454,0.9486,0.9509,0.9548,0.957,0.9603,0.9623,0.9644,0.9651,0.9667,0.9708,0.9734,0.9769,0.9781,0.9789,0.9829,0.9825,0.9823,0.9813,0.9838,0.985,0.9855,0.9793,0.9793,0.9793,0.9793,0,0,0.9489,0.9536,0.9544,0.9561,0.9598,0.9623,0.9655,0.9689,0.9705,0.9733,0.9759,0.9804,0.9802,0.9822,0.9832,0.9852,0.988,0.9847,0.9848,0.9851,0.9923,0.9923,0.9928,0.9882,0.9883,0.9884,0.9919,0,0.9527,0.9584,0.9599,0.9648,0.9677,0.9685,0.9712,0.9737,0.9753,0.9779,0.9796,0.9826,0.9822,0.9834,0.9854,0.9872,0.9894,0.987,0.9906,0.9907,0.9897,0.9935,0.9936,0.9968,0.9924,0.9925,0.9926,0,0.9578,0.9606,0.9657,0.9689,0.9701,0.9726,0.9757,0.9783,0.9811,0.982,0.9842,0.985,0.9883,0.9872,0.9916,0.9899,0.9914,0.9926,0.9927,0.993,0.9917,0.9938,0.9978,0.9983,0.9934,0.9933,0.9932,0,0.9596,0.9648,0.9684,0.9699,0.9737,0.9753,0.977,0.9797,0.9815,0.9843,0.9855,0.9886,0.9902,0.9925,0.9941,0.9932,0.9983,0.9974,0.9991,0.9991,1.0001,1.0,1.0044,1.0013,1.0013,1.0013,1.0013,0,0.9636,0.9666,0.9693,0.9715,0.9749,0.9766,0.9799,0.9815,0.9839,0.9864,0.9873,0.9896,0.9916,0.9942,0.9955,0.9988,0.9996,1.0004,1.0007,1.0003,1.0001,1.0012,1.001,1.0014,1.0014,1.0014,1.0014,0,0.9662,0.9681,0.9721,0.9753,0.9762,0.9785,0.9812,0.9834,0.9849,0.9881,0.9889,0.9913,0.9943,0.9962,1.0,1.0009,1.0045,1.0048,1.0036,1.0037,1.0052,1.005,1.0104,1.0111,1.0077,1.0077,1.0077,0,0.9685,0.9709,0.9743,0.976,0.9777,0.9805,0.9824,0.9841,0.986,0.9893,0.991,0.9941,0.9966,1.0014,1.0035,1.0064,1.0067,1.0083,1.0071,1.0065,1.0065,1.0063,1.0065,1.0085,1.0085,1.0086,1.0086,0,0.9724,0.9732,0.9759,0.9789,0.9811,0.9836,0.986,0.9874,0.9895,0.9916,0.9947,0.9967,1.0005,1.0035,1.0066,1.0082,1.0087,1.0089,1.0095,1.009,1.0082,1.0085,1.004,1.0088,1.0088,1.0088,1.0088,1.0087,0.9749,0.9769,0.9796,0.9826,0.9846,0.9868,0.9889,0.9906,0.9933,0.9965,0.9974,1.0006,1.0032,1.0073,1.009,1.0115,1.0112,1.012,1.0122,1.0123,1.0123,1.0078,1.012,1.012,1.012,1.012,1.012,0,0.9787,0.9804,0.9831,0.9864,0.9887,0.989,0.9916,0.9935,0.9963,0.9987,1.0011,1.0046,1.0075,1.0097,1.0126,1.0142,1.0145,1.0149,1.0147,1.0151,1.0124,1.0116,1.0146,1.0146,1.0146,1.0146,1.0146,1.0146,0.9809,0.9843,0.9854,0.9898,0.9915,0.9947,0.9961,0.9981,1.0,1.0038,1.0062,1.0076,1.0099,1.013,1.0156,1.0161,1.0171,1.0175,1.0181,1.0156,1.0153,1.015,1.0142,1.0177,1.0177,1.0205,1.0205,1.0205]},{"header":{"parameterUnit":"m.s-1","parameterCategory":1,"la1":30.2991,"la2":30.254,"lo1":-89.0895,"lo2":-89.0444,"dy":0.0017,"dx":0.0017,"nx":28,"ny":28,"refTime":"2025-09-14T09:00:00:Z","depth":0,"parameterNumber":3,"parameterNumberName":"V-component_of_WINDS"},"data":[0,0,0,0,0,0,0,0,0,0,0,0,0,0,0,0,0,0,0,0,0,0,0,0,0,0,0,0,0,0,0,0,0,0,0,0,0,0,0,0,0,0,0,0,0,0,0,0,0,0,0,0,0,0,0,0,0,0,3.1815,3.1814,0,3.1715,3.1714,3.1712,3.1602,3.16,3.1599,3.1597,3.1492,3.1491,3.149,0,0,0,0,0,0,0,0,0,0,0,0,0,3.1909,3.1908,3.1816,3.1814,3.1813,3.1715,3.1714,3.1712,3.1602,3.16,3.1598,3.1597,3.1493,3.1491,3.149,0,0,0,0,0,0,0,0,0,0,0,0,0,3.1845,3.1908,3.1816,3.1746,3.1739,3.1715,3.1714,3.1712,3.1603,3.16,3.1598,3.1596,3.1493,3.1491,3.1489,3.1525,0,0,3.1483,3.1483,0,0,0,0,0,0,0,0,3.1849,3.1841,3.1758,3.1751,3.1743,3.1669,3.1708,3.1649,3.1603,3.1654,3.1597,3.1595,3.1553,3.1546,3.1532,3.152,3.1516,3.1483,3.1482,3.1481,3.1481,0,0,0,0,0,0,0,3.1853,3.1845,3.1775,3.1757,3.1748,3.1719,3.1707,3.1696,3.1618,3.165,3.1642,3.1631,3.1548,3.1534,3.1529,3.1514,3.1483,3.1482,3.148,3.148,3.1523,3.1525,0,0,0,0,0,0,3.1869,3.185,3.1779,3.1772,3.1791,3.172,3.1706,3.1695,3.1618,3.1604,3.1633,3.1626,3.1539,3.1531,3.1525,3.1559,3.1481,3.1479,3.1478,3.1521,3.1523,3.1526,0,0,0,0,0,0,3.1871,3.1863,3.1783,3.1809,3.1796,3.172,3.1708,3.1694,3.168,3.1606,3.1591,3.1634,3.1537,3.1527,3.1525,3.1554,3.1478,3.1477,3.1518,3.1522,3.1525,3.1629,0,0,0,0,0,0,3.1874,3.1865,3.1878,3.181,3.1795,3.1786,3.171,3.1694,3.1677,3.1667,3.1602,3.1589,3.1534,3.1529,3.1523,3.155,3.1475,3.1515,3.1519,3.1524,3.1623,3.1636,3.1647,0,0,0,0,0,3.1878,3.1912,3.188,3.1872,3.1811,3.1788,3.178,3.1717,3.168,3.1692,3.1644,3.1591,3.1552,3.1529,3.1522,3.1549,3.1513,3.1518,3.1523,3.1618,3.1633,3.1647,0,0,0,0,0,0,3.1986,3.1902,3.1865,3.1878,3.1841,3.177,3.1783,3.1736,3.1708,3.17,3.1622,3.1608,3.1614,3.1581,3.1558,3.1577,3.1525,3.1529,3.1599,3.1613,3.1625,3.1632,3.1474,0,0,0,0,0,3.2011,3.2001,3.1928,3.1946,3.193,3.186,3.1848,3.1802,3.176,3.1744,3.1696,3.1657,3.1635,3.1622,3.1599,3.1618,3.1601,3.1632,3.1645,3.1655,3.1659,3.1663,3.1676,3.1543,3.1543,3.1543,0,0,3.2063,3.2016,3.2014,3.1967,3.1933,3.1922,3.1848,3.184,3.1831,3.1743,3.1737,3.1701,3.1651,3.1659,3.166,3.1632,3.1692,3.1662,3.167,3.1668,3.167,3.1683,3.1694,3.1547,3.1546,3.1546,0,0,3.2152,3.2117,3.2127,3.2095,3.2044,3.1997,3.2,3.1935,3.1907,3.1901,3.1833,3.1821,3.1787,3.1753,3.1732,3.1807,3.1756,3.1802,3.1864,3.187,3.188,3.1889,3.1914,3.1924,3.1806,3.1807,3.1807,0,3.2223,3.2205,3.2139,3.2134,3.2114,3.2035,3.2043,3.2015,3.1959,3.1946,3.1916,3.1869,3.183,3.1828,3.1847,3.1833,3.1832,3.1808,3.1885,3.1893,3.19,3.1922,3.1932,3.1812,3.1812,3.1811,3.1811,0,3.2294,3.2282,3.2297,3.2245,3.2227,3.223,3.2161,3.2151,3.2107,3.2063,3.2056,3.2007,3.1971,3.1967,3.1924,3.1958,3.1942,3.1899,3.1844,3.1919,3.1939,3.1947,3.1821,3.1818,3.1817,3.1815,0,0,3.2447,3.2358,3.2364,3.2338,3.2276,3.2265,3.2264,3.2229,3.222,3.2184,3.2179,3.2151,3.211,3.2086,3.2039,3.2044,3.2104,3.2,3.1998,3.2019,3.2135,3.2166,3.2177,3.207,3.2072,3.2073,3.2138,0,3.2523,3.2516,3.2455,3.2465,3.2452,3.2375,3.2373,3.2334,3.2293,3.2275,3.2229,3.221,3.2159,3.2143,3.2146,3.2096,3.2126,3.2091,3.2063,3.2062,3.2075,3.2188,3.2221,3.2285,3.2146,3.2147,3.2148,0,3.2611,3.2581,3.2589,3.2525,3.2517,3.2517,3.2478,3.2463,3.2416,3.2386,3.2359,3.2305,3.2297,3.2247,3.2233,3.221,3.2195,3.2169,3.217,3.2163,3.2109,3.2182,3.2304,3.2313,3.216,3.2159,3.2158,0,3.2719,3.268,3.2679,3.266,3.2586,3.2587,3.2556,3.2507,3.2489,3.2456,3.2443,3.2409,3.239,3.2364,3.2302,3.2272,3.2294,3.224,3.2267,3.2268,3.2273,3.2274,3.2393,3.2268,3.2268,3.2268,3.2267,0,3.281,3.2817,3.2727,3.2726,3.2731,3.2661,3.2668,3.2629,3.2586,3.2575,3.2508,3.2499,3.2418,3.2399,3.2351,3.2345,3.2338,3.2311,3.2297,3.2316,3.2319,3.2303,3.2296,3.227,3.2269,3.2269,3.2269,0,3.2931,3.2871,3.2864,3.2795,3.2777,3.2784,3.2724,3.2719,3.2674,3.2661,3.2654,3.2582,3.2556,3.2492,3.245,3.2417,3.2423,3.24,3.2439,3.243,3.246,3.2457,3.2572,3.2582,3.2453,3.2455,3.2456,0,3.2991,3.2995,3.2926,3.2914,3.2886,3.2868,3.2849,3.278,3.2763,3.2709,3.271,3.268,3.2651,3.2613,3.2556,3.2522,3.2496,3.2539,3.2491,3.2508,3.2494,3.2494,3.2492,3.2549,3.2551,3.2552,3.2553,0,3.3104,3.3074,3.305,3.3016,3.2995,3.2965,3.293,3.2924,3.2846,3.283,3.2803,3.2781,3.2737,3.2706,3.2663,3.2629,3.2578,3.2569,3.2573,3.2591,3.2612,3.2598,3.2465,3.2566,3.2565,3.2564,3.2563,3.2563,3.3194,3.3193,3.3144,3.3119,3.3086,3.3055,3.3047,3.3,3.2977,3.2936,3.2897,3.2873,3.2824,3.2762,3.2731,3.2711,3.2684,3.2691,3.2692,3.2694,3.2701,3.2618,3.2703,3.2702,3.2702,3.2702,3.2701,0,3.3301,3.3266,3.3244,3.3198,3.3178,3.3132,3.3091,3.3077,3.3057,3.3017,3.299,3.2958,3.2927,3.2868,3.2831,3.2826,3.2801,3.2819,3.2817,3.281,3.2728,3.2727,3.2839,3.2839,3.2839,3.2839,3.2839,3.2839,3.3355,3.335,3.3314,3.3291,3.3255,3.3232,3.3212,3.3182,3.3149,3.3117,3.3091,3.3053,3.3004,3.2963,3.2932,3.2915,3.2904,3.2929,3.2904,3.2829,3.2816,3.2803,3.2802,3.2927,3.2928,3.2987,3.2987,3.2988]}]]